Track COSMOS 2492 (GLONASS) now! COSMOS 2492 (GLONASS) is classified as:
1 39620U 14012A 23080.19654883 -.00000077 00000-0 00000-0 0 9990 2 39620 65.8078 353.8707 0014775 325.4428 242.2741 2.13103309 70002